Theta_e
300 299 299 300 300 301 302 303 304 306 309 312 312 310 310 309 307 309 311 313 314 317 319 315 313 312 311 311 310 317 330 332 330 331 331 331 331 329 327 326 325 325 324 323 321 322 323 324 323 321 320 319 319 319 318 317 316 315 314 312 311 306 303 303 304 304 301 296 295 295 296 298 299 301 302 302 303 303 304 305 305 306 306 305 305
301 300 299 299 300 301 301 302 304 307 309 311 312 310 309 307 306 308 310 312 314 315 319 318 313 312 311 311 311 312 322 331 330 330 331 330 331 329 327 326 325 325 324 322 321 322 323 323 322 320 319 319 318 317 317 316 314 314 312 309 309 306 302 301 304 306 302 297 295 293 293 295 296 297 298 297 298 300 301 301 303 304 304 303 304
302 302 300 297 298 300 301 303 305 308 310 310 311 310 308 306 305 307 309 312 313 314 318 319 314 312 311 310 311 310 315 327 332 330 330 330 330 330 328 326 325 325 324 323 321 321 322 323 321 319 319 318 317 316 315 315 314 313 312 309 306 304 302 301 305 307 302 297 298 297 295 294 294 293 293 294 295 296 297 298 298 300 301 302 302
303 303 303 299 298 299 301 303 306 309 310 310 310 310 307 305 305 305 308 311 313 314 317 319 316 312 311 310 311 311 312 322 330 330 330 330 329 329 328 327 326 324 324 323 321 321 322 322 321 319 318 318 317 315 314 314 313 312 311 310 306 303 300 300 304 305 304 302 301 300 296 298 299 293 289 290 291 292 293 294 294 295 297 298 298
304 305 305 304 301 300 301 304 307 309 310 311 310 310 307 305 305 305 307 310 312 314 316 320 318 313 311 311 312 313 313 318 324 327 329 328 328 328 327 326 325 324 324 323 322 321 322 322 321 319 317 317 317 316 314 313 313 312 311 310 308 305 301 301 302 303 307 309 307 302 300 303 300 292 290 290 288 289 289 290 291 291 292 293 292
304 304 304 306 302 298 302 305 307 309 309 310 310 309 307 306 305 305 306 309 312 314 316 319 320 315 312 312 311 312 314 317 318 321 325 327 327 326 326 325 324 323 322 322 321 321 321 321 320 318 316 316 316 316 315 313 311 311 311 310 309 308 304 302 302 302 305 309 310 307 307 307 298 291 294 292 287 287 288 287 288 288 289 289 289
306 307 306 306 303 302 305 306 307 309 309 310 310 308 307 306 305 304 305 308 311 314 315 318 320 318 316 315 312 310 312 316 316 318 321 324 325 325 324 324 323 322 321 320 320 320 321 320 319 318 317 316 316 315 314 313 313 311 311 310 308 307 305 304 303 302 303 305 307 307 306 307 303 298 297 295 291 289 287 286 287 287 287 287 287
309 310 310 311 307 302 304 305 306 309 309 310 310 309 308 306 305 304 304 306 310 313 315 317 320 320 320 319 317 313 310 312 315 316 318 320 322 323 323 323 322 321 321 320 320 320 319 318 318 317 316 315 316 315 314 313 312 311 310 309 308 307 306 306 306 303 303 304 306 305 305 306 306 303 301 299 296 291 287 286 286 286 286 287 287
306 307 310 314 305 297 300 302 304 307 309 310 310 309 308 306 306 304 304 305 309 312 314 316 318 320 321 320 319 317 315 312 312 313 316 317 318 319 320 321 320 319 319 319 319 319 318 317 317 317 316 316 316 316 315 313 311 311 309 309 308 307 307 307 307 305 305 307 305 304 305 303 302 302 301 300 297 293 290 286 285 285 285 286 286
307 307 310 309 300 297 300 300 301 303 306 308 309 309 308 306 306 305 304 304 307 312 314 315 317 318 320 320 320 320 318 316 315 313 313 314 315 318 319 319 319 317 316 317 317 317 317 317 317 316 316 316 316 316 316 314 312 311 310 310 309 308 307 307 307 307 307 308 307 306 304 301 299 298 298 298 296 294 292 287 285 285 285 285 285
313 312 312 307 298 297 301 300 301 302 303 307 309 309 307 306 306 305 305 304 305 310 313 314 316 317 319 320 320 320 319 318 317 316 315 313 313 317 321 322 321 320 318 317 318 317 317 317 317 316 316 316 315 315 316 314 313 312 311 310 309 308 308 307 307 308 308 308 307 307 306 304 302 299 298 299 297 293 292 288 285 285 285 285 284
314 314 314 311 303 301 300 300 302 302 303 306 307 308 307 306 306 306 305 305 305 308 311 314 315 317 318 319 320 320 320 320 318 316 316 315 315 317 319 320 321 322 322 322 322 321 320 320 319 318 318 318 316 316 316 315 313 312 312 311 310 309 309 308 307 307 307 307 307 306 307 308 307 306 304 303 301 298 294 288 285 286 286 285 284
315 314 314 313 310 308 301 298 301 301 303 306 306 307 307 306 306 305 305 305 304 306 310 312 314 315 317 318 318 319 320 320 319 318 316 315 316 316 316 317 316 317 319 319 320 321 320 319 319 319 320 319 319 318 317 316 314 313 312 311 311 310 309 308 308 308 307 307 308 306 306 306 307 309 308 305 301 300 295 288 285 286 286 284 284
315 314 314 312 312 311 301 296 299 300 301 304 306 307 307 306 306 305 305 305 304 305 307 310 312 314 316 317 317 318 318 319 320 320 318 316 316 316 316 316 315 315 316 316 316 317 317 317 317 318 319 319 319 319 319 318 317 315 314 312 311 311 310 309 309 309 308 308 308 307 306 307 307 307 307 305 302 300 295 288 286 286 285 284 283
315 314 313 312 312 307 298 296 298 300 300 302 304 306 306 306 306 305 305 305 305 304 305 307 309 311 314 315 316 317 317 318 318 319 319 318 317 317 317 316 315 315 315 315 315 315 315 315 315 316 316 316 316 317 317 317 317 316 315 314 312 311 310 309 309 309 308 308 308 308 307 307 306 306 306 306 306 305 301 295 290 287 285 284 283
314 314 313 312 309 300 295 297 299 299 300 300 302 304 305 306 306 305 305 304 304 304 304 304 306 309 311 313 315 316 316 317 317 318 318 318 318 318 317 317 316 314 313 314 314 314 315 315 315 315 314 315 315 315 315 315 315 314 314 313 312 312 311 310 309 309 309 309 308 308 307 306 306 306 306 307 307 307 305 301 296 291 289 287 284
313 313 311 311 307 299 296 298 299 300 301 300 301 302 303 305 305 305 305 304 304 304 304 304 304 306 307 309 312 313 314 315 316 316 317 318 318 317 317 317 316 315 314 314 314 314 314 314 314 314 314 313 313 314 314 314 314 313 313 313 312 312 311 311 310 309 309 309 308 308 307 305 305 304 305 306 306 306 304 303 300 297 295 292 286
310 310 308 307 307 302 297 298 300 301 301 301 302 301 301 303 304 304 304 304 303 303 303 303 303 304 305 306 308 310 311 313 314 315 316 316 316 316 316 315 315 315 314 314 313 313 312 312 312 312 313 313 312 312 313 313 313 312 312 314 314 313 312 311 311 310 309 309 308 307 306 305 304 303 303 305 305 305 303 301 300 298 298 296 290
309 309 308 308 309 304 297 298 301 302 302 302 302 302 301 302 302 303 304 303 303 303 302 303 303 303 303 303 304 306 308 309 311 312 313 314 315 315 315 315 315 314 313 313 312 312 311 311 311 311 311 312 312 311 312 311 311 311 311 312 312 312 311 310 310 309 309 308 307 306 305 304 303 302 302 303 303 304 302 300 298 297 298 299 295
309 309 309 310 311 303 297 299 302 302 303 303 302 302 301 301 301 302 303 303 303 303 302 302 302 302 302 303 303 304 304 306 308 310 311 311 312 313 314 315 314 314 314 313 312 311 311 310 310 310 310 311 311 310 311 310 310 310 310 310 310 310 310 309 309 308 308 308 306 305 304 303 302 301 300 301 301 301 300 298 297 296 297 301 300
308 309 309 311 311 301 297 300 302 302 302 302 302 302 302 302 301 301 302 302 303 303 303 302 302 302 302 302 303 303 303 303 305 307 308 309 310 311 312 313 312 313 313 313 312 311 310 310 310 310 309 310 310 310 310 309 309 309 309 309 309 308 308 308 307 307 307 307 305 304 303 302 301 300 299 299 299 298 297 296 296 297 298 301 302
308 308 307 310 311 303 297 299 300 300 301 302 303 303 302 302 302 301 301 301 302 302 302 302 302 302 302 302 302 302 303 303 303 304 306 307 308 309 310 310 310 310 311 311 311 311 310 309 309 309 308 308 309 309 309 309 309 309 308 308 308 307 307 307 306 305 305 305 304 303 302 301 300 299 298 298 298 297 296 296 296 298 301 301 301
306 306 305 307 308 300 295 296 297 298 300 301 303 302 302 303 302 302 302 301 302 302 302 302 302 302 302 302 302 302 302 303 303 304 304 305 306 307 308 308 308 308 309 309 309 309 309 309 309 309 308 307 307 308 308 308 308 308 308 307 308 308 307 306 305 305 304 304 304 303 302 301 300 299 298 298 298 296 295 296 298 299 301 300 298
305 305 306 307 305 300 300 299 295 296 298 299 301 301 301 301 301 301 301 301 301 301 301 301 301 301 302 302 302 302 302 303 303 303 304 303 304 305 306 307 307 307 307 308 308 307 307 307 308 308 308 306 306 306 306 307 307 307 307 306 307 307 307 306 305 305 304 304 303 302 301 301 300 299 299 298 297 296 296 298 299 300 300 299 296
307 308 309 309 308 308 309 302 294 295 298 298 299 300 299 300 300 300 300 300 300 300 300 301 301 301 301 301 302 302 302 302 302 302 303 303 303 303 304 305 305 306 306 306 306 306 305 306 306 307 307 307 307 306 305 305 306 306 306 306 307 307 307 306 306 305 305 304 304 302 301 300 300 299 298 297 296 296 297 298 300 299 299 297 294
312 312 310 310 310 311 312 303 293 294 298 298 299 300 299 299 300 299 300 299 299 300 300 301 301 301 301 301 301 301 302 302 302 302 302 302 303 303 303 303 304 305 305 305 305 305 305 305 305 306 306 306 307 306 305 304 304 304 304 305 306 306 306 306 305 305 305 304 303 302 301 301 300 299 298 297 297 297 298 299 299 299 298 295 293
315 314 311 311 309 309 311 304 295 294 297 298 299 299 299 299 300 299 299 299 299 299 299 300 300 300 301 301 301 301 301 301 302 302 302 302 303 303 303 302 303 303 304 304 304 304 304 304 304 304 304 304 304 305 305 304 303 303 303 303 304 304 304 304 304 303 304 304 303 301 301 301 300 300 299 298 298 297 298 298 298 298 296 293 292
311 311 310 309 308 307 309 305 296 293 296 297 298 299 299 299 299 299 299 298 298 299 299 299 298 298 299 299 300 300 300 301 301 301 302 302 302 302 302 302 302 302 303 303 303 303 303 303 303 302 302 301 302 302 304 304 303 302 302 302 303 303 303 302 302 302 302 302 301 300 301 301 301 301 300 300 299 298 298 297 297 296 295 292 291
308 307 306 306 306 305 307 307 298 292 293 295 296 297 298 298 298 298 298 298 298 298 298 298 297 297 297 298 298 299 299 300 300 300 301 301 301 302 302 302 302 301 302 302 302 303 302 302 302 301 300 300 300 300 301 302 303 302 302 302 301 302 302 301 300 300 300 300 300 299 300 301 301 301 301 301 300 299 299 297 295 295 294 292 290
305 305 305 304 305 305 304 306 301 292 291 293 294 296 297 297 298 298 298 298 298 298 297 297 297 297 297 297 297 298 298 299 299 300 300 300 301 301 301 301 301 301 301 301 301 302 301 301 301 300 299 299 299 300 301 301 302 302 301 301 300 300 301 301 300 299 299 299 298 298 299 299 300 300 300 300 299 299 300 300 298 297 296 293 289
303 304 304 303 305 304 302 305 303 294 291 293 295 296 297 297 297 297 297 298 297 297 297 296 296 296 296 296 297 297 298 298 299 299 299 300 300 300 300 301 301 301 301 300 300 300 300 300 300 299 298 299 299 299 300 300 300 300 300 299 298 298 298 299 299 298 298 298 297 297 297 297 298 299 299 298 298 298 299 300 299 300 299 296 292
302 302 303 303 304 303 302 305 301 293 291 294 295 296 297 297 297 297 297 297 296 296 296 295 295 295 295 295 296 296 297 298 298 299 299 299 299 299 300 300 300 300 300 299 299 299 299 299 298 298 297 298 299 299 298 299 298 298 298 298 298 298 297 297 297 297 297 297 296 295 296 296 297 298 298 298 298 298 299 299 299 299 298 297 296
301 301 302 303 302 302 302 301 296 292 294 297 297 297 297 297 298 297 297 296 295 295 295 294 294 294 294 295 295 296 297 297 298 298 298 299 299 299 299 299 299 300 299 299 298 298 298 298 297 296 296 296 297 298 297 297 297 297 297 297 297 297 296 295 295 295 295 295 294 293 294 294 295 297 298 298 297 297 297 297 297 297 295 294 294
301 301 301 301 301 300 297 294 294 295 297 298 298 297 298 298 297 297 296 295 295 294 294 294 294 293 294 294 295 296 297 297 298 298 298 298 298 298 299 299 299 299 298 298 297 297 296 297 297 296 295 295 295 296 297 296 296 296 296 296 295 295 295 295 294 294 294 294 293 293 292 293 294 296 297 297 296 296 295 293 293 293 292 291 290
300 300 301 301 301 300 295 292 294 297 297 298 298 298 297 297 297 296 295 295 294 294 294 293 293 293 293 294 295 296 296 297 297 297 297 297 298 298 298 298 298 298 298 297 297 296 295 295 296 296 295 294 294 295 295 296 296 296 295 295 294 294 294 294 293 293 292 292 292 292 292 292 292 294 297 297 296 296 294 291 290 289 289 288 288
300 301 302 301 299 297 295 294 296 297 297 297 298 297 297 296 295 295 295 294 294 293 293 293 292 292 293 294 295 295 296 296 296 296 296 296 297 297 297 297 297 296 296 296 296 296 295 295 295 295 294 294 294 294 294 295 295 295 294 294 293 293 293 293 293 292 292 291 291 291 291 291 291 292 294 296 296 295 292 289 288 287 287 287 286
300 300 299 298 296 295 295 296 296 297 298 298 298 297 296 295 295 294 294 294 293 293 293 292 292 292 292 293 294 295 295 296 296 295 296 296 296 296 296 296 296 295 295 295 295 295 295 294 294 294 293 293 293 293 293 294 294 294 293 293 293 292 292 291 291 291 291 291 291 291 291 291 290 290 292 294 295 294 291 288 286 286 285 285 285
301 299 297 295 294 295 295 296 296 297 298 298 297 297 296 294 293 293 293 293 292 292 292 292 292 292 292 292 293 294 294 295 295 295 295 295 296 296 296 295 295 295 294 294 294 294 294 293 293 293 293 292 292 292 293 293 293 293 293 293 292 292 291 290 290 290 290 290 290 290 291 291 291 291 291 293 293 292 289 287 286 285 284 284 284
298 297 296 295 295 295 295 295 295 297 298 297 297 296 295 293 292 292 292 291 291 292 292 292 292 292 291 291 292 293 293 294 294 294 295 295 295 295 295 295 294 294 293 293 294 293 293 292 292 292 292 292 292 291 292 292 292 292 292 292 292 291 290 289 289 288 288 289 289 289 290 291 291 291 291 291 291 290 289 287 286 284 283 283 283
297 295 296 295 295 294 294 293 295 297 297 296 296 295 294 292 292 291 290 291 292 292 292 292 292 291 291 291 291 291 292 293 293 294 294 294 294 294 293 293 293 293 293 293 292 292 292 292 292 291 291 291 291 291 291 292 292 291 292 292 291 290 290 289 288 288 287 287 287 288 289 290 291 291 290 289 289 289 288 287 285 284 284 283 283
295 294 294 294 294 294 294 295 296 297 296 296 296 294 292 292 291 290 291 292 293 293 292 292 292 291 291 291 290 291 292 292 293 293 293 293 293 293 293 293 293 293 292 291 291 291 291 291 291 291 291 291 291 291 291 291 291 291 291 291 291 290 290 289 288 287 286 286 286 287 287 288 289 289 289 289 288 287 287 286 285 284 284 283 283
293 293 293 293 293 293 295 295 295 295 296 296 295 293 292 291 290 290 293 294 293 293 292 292 291 291 291 291 290 290 291 292 292 292 293 293 293 293 293 293 292 291 291 290 290 290 290 291 290 290 290 290 290 290 291 291 291 291 291 291 291 290 289 289 288 286 286 286 286 285 285 286 287 287 287 287 287 286 285 285 284 284 283 283 283
295 294 293 292 292 292 293 294 294 294 295 296 294 292 291 290 290 293 295 294 292 292 292 292 291 291 291 291 290 290 291 291 292 292 292 292 292 292 291 291 291 290 290 289 289 289 290 290 289 289 289 289 289 289 290 291 291 291 291 290 290 290 289 288 288 287 286 286 285 285 285 285 285 285 285 285 285 284 284 284 283 282 282 282 282
297 295 293 292 292 292 292 293 293 294 294 294 293 292 291 290 292 294 294 292 292 292 291 291 291 291 291 291 290 290 291 291 291 291 291 291 291 290 290 290 290 289 289 289 288 289 289 289 289 288 288 288 288 289 289 290 291 290 290 290 289 289 289 288 288 287 287 286 285 285 285 285 285 284 284 284 284 283 283 283 282 282 282 282 282
294 292 292 292 292 292 291 292 293 293 293 294 294 292 291 291 293 294 293 292 292 291 290 291 291 290 290 290 290 290 290 290 291 291 291 290 290 290 289 289 289 289 288 288 288 288 288 288 288 288 288 287 288 288 288 289 290 290 290 289 289 289 289 287 287 287 286 286 285 285 286 286 285 284 284 284 283 282 282 282 282 282 282 281 281
293 292 291 291 292 292 291 290 291 292 292 293 293 293 292 293 294 293 292 292 292 291 290 290 290 290 290 290 290 290 290 290 290 290 290 290 289 289 289 288 288 288 288 288 288 288 288 288 288 288 288 287 287 287 287 288 288 289 289 289 289 289 288 287 287 286 286 285 285 286 286 286 286 285 284 284 283 283 282 282 282 281 281 281 281
293 292 291 289 291 296 297 291 289 291 292 292 293 293 293 294 294 292 292 292 291 290 290 289 289 289 290 289 289 289 289 289 290 290 290 290 289 289 289 288 288 288 288 288 288 287 287 288 288 287 287 287 287 287 287 287 288 288 289 289 289 288 288 287 286 286 285 285 285 285 285 285 285 284 284 284 283 283 282 281 281 281 281 281 281
290 289 290 288 290 297 298 291 289 291 291 291 292 293 294 294 293 292 292 292 291 290 290 289 289 289 289 289 289 289 289 289 289 289 289 289 289 289 289 288 288 288 288 287 287 287 287 288 288 287 287 287 286 286 286 287 287 288 288 289 289 288 287 286 285 285 285 285 284 284 284 284 284 283 283 284 284 283 283 281 281 281 281 280 280
290 288 289 289 289 291 291 289 289 291 291 291 292 293 293 293 292 292 292 291 291 290 289 289 289 289 289 289 289 289 289 289 289 289 289 289 289 289 289 288 288 288 288 288 288 287 287 288 288 287 287 287 286 286 286 286 287 287 288 288 288 288 287 286 285 285 285 284 283 283 282 282 283 283 283 283 284 284 283 282 281 281 281 280 279
290 288 289 288 289 290 289 289 291 291 291 292 293 293 293 293 292 292 292 291 291 290 289 288 288 288 288 288 288 288 289 289 289 289 289 289 289 289 289 289 288 288 288 288 288 288 288 288 288 288 287 287 287 287 287 287 287 287 287 288 288 288 287 286 285 284 284 283 282 282 282 282 282 282 282 283 283 283 283 282 281 281 280 280 279
290 290 290 288 288 289 289 289 291 292 292 292 292 292 293 292 292 292 292 291 291 289 288 288 288 287 288 288 288 288 288 288 288 288 288 288 288 288 288 288 289 288 288 288 288 288 288 288 288 288 287 288 288 288 287 287 287 287 287 287 288 287 287 286 285 284 284 283 282 282 282 282 282 282 282 282 283 283 283 283 282 281 280 279 279
Wind_Speed
12 17 21 22 24 24 23 23 22 21 22 22 21 21 20 16 13 10 8 7 6 7 9 4 4 2 8 13 24 30 27 47 44 47 49 45 46 48 48 48 47 47 49 48 46 46 45 45 46 46 47 49 49 48 48 46 45 44 43 43 42 39 36 37 40 40 35 27 21 21 20 19 19 21 22 21 23 23 23 24 25 25 25 24 24
9 12 16 19 20 19 19 19 19 20 21 22 22 21 19 15 13 10 7 6 6 7 8 9 11 6 6 10 17 28 18 34 43 42 48 47 45 48 48 47 48 48 50 49 48 48 47 47 47 48 48 49 47 46 47 46 45 45 43 41 41 41 38 39 44 39 29 24 23 19 15 14 13 14 17 16 17 19 20 21 21 23 23 23 23
9 9 11 14 15 14 15 17 19 20 19 20 20 19 17 15 13 9 6 5 5 7 7 12 14 6 2 8 12 22 25 21 43 40 42 47 44 48 48 46 48 48 49 50 49 49 49 49 48 49 49 48 46 45 45 47 46 46 47 43 39 38 36 40 44 36 29 27 23 14 6 7 6 6 10 11 13 14 16 18 18 20 21 21 21
10 10 8 10 11 9 11 16 18 17 18 19 19 17 16 14 13 9 6 5 5 7 7 11 14 9 5 5 8 11 24 12 34 42 40 44 43 46 47 47 48 48 49 50 49 50 50 51 51 50 49 48 48 47 46 48 49 48 48 46 44 38 34 39 37 31 37 34 16 7 5 6 3 5 8 6 9 11 11 14 15 17 19 19 19
10 10 9 7 8 8 10 15 15 15 18 21 19 17 14 14 13 10 6 5 5 7 6 7 14 14 9 3 7 7 17 17 12 29 35 39 40 42 45 46 47 46 49 50 50 50 49 51 51 49 48 48 49 49 48 48 49 49 49 49 50 45 40 40 33 28 40 40 23 11 8 3 2 10 13 6 6 9 10 12 13 14 16 17 17
8 9 9 7 7 8 9 12 13 15 18 20 18 15 13 13 12 10 7 6 5 7 7 6 14 16 13 11 10 12 10 15 9 9 21 33 36 38 40 42 43 42 44 47 48 49 50 50 50 47 46 46 47 48 48 47 46 47 49 50 50 48 45 41 33 32 37 35 27 21 14 8 12 18 11 2 4 7 8 11 12 13 15 15 17
7 7 7 7 7 7 7 10 13 16 18 17 16 14 12 12 12 11 8 6 5 6 8 8 12 16 12 9 10 14 8 5 5 4 8 22 28 34 37 37 39 40 41 42 44 47 48 48 48 48 47 45 46 46 46 48 48 48 48 49 47 45 45 42 37 36 36 29 22 20 12 11 24 27 14 6 5 5 9 12 12 13 13 14 16
7 8 7 7 7 7 8 10 11 14 16 16 16 15 13 11 11 11 9 6 6 7 9 9 12 16 13 5 7 15 15 9 5 1 3 11 18 27 34 35 35 39 42 42 42 44 44 45 47 48 46 44 44 44 44 46 47 47 46 45 44 44 45 45 43 40 38 31 24 18 10 13 27 31 26 18 8 4 7 10 12 13 13 14 15
7 7 8 7 7 8 10 10 9 11 12 14 16 16 13 11 10 10 9 7 6 7 9 11 12 14 14 9 6 11 16 19 16 11 9 9 11 17 27 33 34 36 41 43 42 43 42 44 46 46 45 44 45 45 45 43 43 44 45 43 43 45 45 44 43 44 42 37 31 22 14 18 24 23 24 19 9 7 6 6 12 14 13 15 15
7 7 8 8 9 10 9 9 9 9 10 12 14 15 13 11 10 10 9 7 6 8 9 11 13 13 13 11 9 9 12 18 23 23 21 17 15 17 21 25 27 29 32 36 40 41 41 43 44 45 45 46 47 47 47 46 45 45 46 45 44 45 43 39 41 46 45 39 37 31 23 24 21 15 18 17 10 8 6 8 18 18 13 15 17
6 6 7 8 10 10 8 8 9 8 9 11 13 14 13 11 10 9 9 8 7 8 10 11 13 13 13 12 12 12 13 17 21 24 27 27 27 29 29 29 30 30 28 30 34 36 38 41 42 42 44 44 44 45 46 47 47 47 46 45 43 44 43 39 38 42 43 39 38 37 34 33 28 20 24 25 15 10 8 9 17 17 13 15 17
6 6 6 6 8 8 7 9 10 7 8 11 13 13 14 12 11 10 10 10 9 9 10 12 13 14 14 14 14 14 15 18 20 23 28 31 31 34 35 35 38 41 41 41 43 45 47 49 49 48 48 48 46 45 47 47 47 47 47 45 43 43 43 40 37 38 40 38 38 39 38 37 36 31 34 34 26 21 17 13 16 17 11 11 16
5 5 6 6 6 6 7 9 10 8 8 10 13 14 14 13 12 12 12 12 11 11 12 13 14 15 16 16 16 16 16 18 21 23 26 29 31 33 34 34 36 40 44 47 50 53 55 56 57 57 57 56 54 52 50 49 48 48 48 47 45 44 44 42 40 40 42 41 40 40 37 35 36 34 35 35 27 24 24 19 16 15 10 10 15
5 6 5 6 6 6 7 9 10 10 9 10 13 15 15 14 14 14 14 13 13 13 14 15 16 16 17 18 19 18 18 18 20 23 26 28 29 32 35 36 36 38 41 42 44 48 50 51 54 57 58 59 58 58 56 53 53 52 50 49 47 47 46 44 42 41 42 42 40 40 39 38 37 34 33 34 30 26 27 28 21 12 9 12 13
5 5 6 7 7 7 8 10 11 12 11 11 13 15 17 17 16 16 15 15 16 15 16 17 18 18 19 20 21 21 20 20 21 22 26 30 32 34 36 36 36 37 38 40 41 44 45 45 47 49 51 53 55 56 57 57 57 56 54 52 50 48 46 44 42 41 42 42 41 42 42 41 39 36 34 34 34 30 29 34 30 16 6 6 8
5 5 7 8 8 7 9 11 13 13 12 13 14 16 19 19 18 18 17 16 17 18 18 18 19 20 21 22 23 23 22 22 22 23 26 30 33 35 36 37 37 34 33 35 37 41 43 43 44 45 45 48 51 53 54 56 57 56 55 53 52 50 47 46 44 42 43 44 43 43 42 40 39 39 37 35 35 33 31 34 36 28 14 5 4
6 6 7 8 7 7 10 13 14 15 15 16 17 17 19 20 20 20 18 17 18 19 20 20 20 21 22 23 24 25 25 25 25 25 26 29 31 33 34 35 37 35 34 35 36 39 42 41 42 43 43 45 48 50 52 54 55 55 55 55 54 52 50 49 47 44 43 44 44 42 41 40 40 39 38 36 35 34 33 33 34 34 26 12 4
7 7 7 7 6 7 11 14 17 18 18 18 18 17 18 19 20 21 20 20 19 20 21 21 21 22 22 23 25 26 26 27 27 27 28 28 30 32 32 33 34 35 36 36 36 38 39 39 39 40 41 42 44 48 49 51 53 54 54 55 56 54 51 50 49 46 44 43 43 42 41 40 40 40 38 38 38 36 35 35 34 33 30 21 13
7 7 7 7 7 8 12 15 19 20 20 20 18 17 17 18 20 21 22 21 20 19 20 21 21 22 22 22 24 25 26 26 27 27 28 29 31 32 33 33 34 34 35 35 37 38 38 39 39 38 40 41 42 45 46 48 50 52 52 52 53 54 53 51 49 47 45 44 42 41 40 40 39 40 39 38 38 37 36 36 34 33 28 23 21
7 7 7 7 8 10 14 17 20 21 21 20 19 18 17 18 19 21 22 22 21 21 21 21 21 21 22 22 22 23 24 26 27 27 27 29 30 32 33 35 35 36 37 37 37 38 38 40 40 39 40 41 42 43 44 45 46 47 49 48 48 50 51 49 48 47 46 45 43 42 41 41 39 39 39 39 38 37 37 36 35 34 26 19 20
8 7 7 8 8 10 15 19 20 21 20 19 19 20 19 18 18 19 21 22 23 23 23 23 22 22 23 23 23 24 25 26 27 28 28 29 30 32 33 34 35 37 39 39 39 39 39 40 41 41 41 41 42 43 44 45 45 44 45 45 45 47 47 45 44 44 45 44 43 42 40 40 39 39 39 38 38 37 36 36 35 32 26 20 20
9 8 8 8 7 9 13 17 17 17 19 20 21 21 21 20 20 19 19 21 22 24 25 25 24 24 24 24 24 25 26 26 27 28 29 30 30 31 32 33 34 36 37 39 40 40 40 40 41 43 42 41 41 43 43 45 46 45 44 43 44 44 43 42 43 43 44 43 42 41 40 39 38 38 38 38 38 37 36 37 36 30 25 24 23
9 7 7 7 7 8 10 11 13 15 17 20 20 21 21 22 21 20 19 20 21 22 24 25 26 26 26 25 25 25 26 27 28 29 30 31 31 31 31 32 34 35 36 38 38 39 40 41 42 43 43 41 40 41 43 44 46 46 45 44 45 46 44 43 43 43 43 43 42 42 42 41 39 38 38 38 37 37 37 37 34 29 26 26 25
7 6 6 6 6 6 7 7 10 13 16 18 19 20 21 21 20 20 20 20 20 20 21 22 24 26 27 27 27 27 27 28 28 29 30 31 31 31 31 32 33 34 36 37 38 37 38 39 41 43 43 41 40 39 39 42 45 45 44 44 45 46 46 45 45 44 44 44 44 43 43 44 43 41 39 39 38 39 39 36 31 28 27 27 27
7 7 6 6 6 6 6 7 9 12 15 17 18 19 20 20 21 21 21 20 19 19 19 20 21 23 25 27 28 29 29 29 29 29 30 30 30 30 31 32 33 33 34 36 37 37 37 37 40 42 43 44 44 41 38 40 43 44 44 45 46 46 46 47 47 46 46 47 46 46 45 45 45 43 42 41 41 42 40 36 32 30 30 29 28
8 7 6 6 6 6 7 7 9 13 15 16 18 19 20 20 21 21 20 20 18 17 17 17 19 20 22 24 26 28 30 31 31 31 31 31 31 31 31 32 33 33 33 34 35 36 36 37 39 41 42 44 46 45 42 40 40 41 41 43 44 45 45 46 47 47 48 48 48 47 47 47 47 46 45 44 43 43 41 38 36 33 31 31 29
7 6 5 5 6 7 8 8 10 14 16 16 18 19 20 21 21 21 19 17 16 14 14 14 15 17 19 21 23 25 28 29 30 31 31 31 32 32 32 33 33 33 33 34 34 35 36 37 38 38 38 39 42 44 45 43 40 39 39 40 41 42 42 43 44 46 47 48 48 48 48 49 50 49 47 47 45 44 42 41 39 36 34 32 30
5 5 6 7 7 8 8 8 10 13 15 16 17 19 20 21 21 20 17 16 14 13 13 14 14 16 18 20 21 22 23 25 27 28 29 30 31 32 32 32 32 32 33 34 34 35 35 36 36 35 34 34 35 38 42 43 42 40 39 39 40 42 41 41 41 43 45 46 46 47 48 51 51 50 49 49 48 47 44 40 38 37 36 34 31
7 8 8 7 8 8 8 8 9 11 13 14 16 18 19 20 20 18 16 15 15 14 14 15 15 17 19 19 19 20 21 23 24 25 27 28 29 30 30 30 30 31 32 33 33 34 35 35 35 35 34 33 33 35 38 41 43 42 41 40 40 41 42 42 41 41 42 44 45 45 47 50 51 50 49 49 49 48 47 43 40 39 37 35 33
8 8 8 8 8 8 8 8 8 9 12 13 16 17 18 19 19 18 17 16 15 15 15 15 16 17 17 17 18 19 20 22 23 24 25 26 27 28 28 28 29 29 30 31 32 32 33 34 35 35 34 33 34 36 38 40 42 42 42 40 38 39 42 43 43 42 42 42 43 44 46 48 49 48 47 47 47 47 47 45 43 41 39 38 36
9 9 9 9 9 8 8 8 8 10 13 15 16 17 17 17 17 18 17 16 15 15 15 16 17 17 17 16 17 17 19 21 23 24 25 25 26 26 27 27 28 28 29 29 30 31 32 33 34 34 34 35 36 37 39 40 41 41 40 39 37 36 38 41 43 43 43 43 43 43 44 45 46 46 46 45 46 45 44 42 41 40 40 40 39
8 9 9 10 10 9 9 9 10 12 14 17 18 17 17 18 18 17 16 15 15 15 15 16 16 16 16 17 17 17 18 20 22 23 24 25 25 25 26 27 27 28 28 28 29 30 31 33 33 33 34 37 39 39 38 39 39 39 38 38 38 37 36 38 41 43 43 43 44 44 44 45 46 46 45 44 44 43 43 41 40 39 39 39 39
10 11 11 11 11 9 10 11 12 15 18 20 20 19 18 18 16 15 15 15 15 15 15 15 15 15 16 16 16 17 18 20 21 22 23 24 24 25 26 27 28 28 28 28 29 30 31 32 33 33 33 36 39 39 38 38 38 38 38 37 37 38 37 36 37 40 41 42 43 42 43 44 45 45 45 44 43 43 41 40 39 38 38 39 38
12 12 11 11 10 9 10 14 17 19 21 21 20 19 17 15 13 13 14 15 15 15 14 14 14 14 14 14 15 16 18 19 20 21 22 23 24 26 26 27 28 28 28 28 28 29 30 31 33 34 33 34 36 37 38 38 37 37 37 36 34 36 37 36 35 35 37 40 43 43 43 45 46 46 46 45 45 44 42 39 37 37 38 39 39
14 12 12 12 11 9 9 14 19 21 19 19 19 18 15 13 13 14 15 15 15 15 14 14 14 14 13 13 14 15 17 18 19 20 21 23 24 25 26 27 28 29 30 30 29 28 28 30 33 34 33 32 34 35 36 37 37 36 36 34 33 32 33 35 35 34 34 37 41 42 43 44 46 49 50 49 47 46 43 40 37 37 38 38 38
13 11 13 13 13 14 15 17 20 20 19 19 20 18 16 15 15 15 15 15 15 15 15 14 14 14 13 13 13 15 16 17 18 19 20 22 23 24 26 27 27 28 28 28 28 27 27 29 32 33 32 32 32 33 34 34 36 36 35 34 33 32 31 33 35 35 35 35 38 40 40 41 43 46 49 50 48 46 43 40 37 37 36 36 37
12 14 17 18 20 22 22 21 19 19 21 22 20 18 16 16 15 15 15 15 16 16 16 15 15 15 14 14 14 15 17 17 18 19 20 22 23 24 25 25 25 25 25 25 26 25 26 29 32 32 31 31 30 31 32 33 35 36 36 35 34 33 32 31 32 34 36 36 38 39 40 40 41 43 46 48 47 45 43 40 38 36 35 34 35
12 14 14 17 21 22 21 21 19 20 23 23 20 18 17 16 16 16 16 16 17 18 17 16 17 17 16 16 15 16 17 18 18 19 20 21 22 24 24 24 25 25 26 26 25 23 25 29 31 32 31 31 30 30 32 33 34 37 38 37 35 33 31 29 29 31 33 36 37 39 39 40 41 42 44 46 46 45 43 41 40 38 36 35 35
14 14 15 17 20 19 18 18 18 20 23 22 20 19 18 16 16 16 16 16 18 20 19 19 18 17 17 18 17 17 18 19 20 20 21 22 23 24 24 24 24 24 23 22 22 23 25 28 30 30 30 30 29 29 32 33 35 37 38 37 35 32 30 29 29 29 31 33 35 37 38 40 41 41 43 44 45 45 44 43 42 40 37 36 37
12 15 18 19 18 16 14 16 19 22 23 22 21 19 18 17 16 16 17 19 22 22 20 19 18 17 18 18 18 18 19 19 20 21 22 23 23 23 23 22 22 21 19 19 21 24 26 28 28 27 28 29 29 29 31 34 36 38 38 37 35 34 32 30 30 30 30 31 33 36 37 38 39 40 42 43 43 43 43 43 44 43 41 40 39
11 15 17 16 17 19 19 20 23 23 22 23 22 20 19 17 15 16 20 24 24 21 19 19 19 18 18 18 19 20 20 20 21 21 22 23 23 22 22 21 20 20 19 19 21 24 26 26 26 26 26 28 29 30 32 35 36 37 38 38 37 36 34 32 30 30 31 32 33 36 37 38 39 39 41 43 43 42 42 42 43 43 41 40 40
9 14 16 16 16 17 17 19 20 21 22 24 23 20 18 16 15 19 25 25 21 19 19 19 20 20 19 19 19 20 21 20 20 20 20 21 21 21 22 21 21 20 19 20 21 23 25 24 23 24 26 27 29 30 32 34 36 37 39 39 38 36 34 32 31 31 32 33 34 35 36 36 37 38 39 42 42 42 41 41 41 39 36 36 40
7 10 15 16 12 12 15 18 19 20 21 23 23 20 17 15 18 25 25 21 19 20 20 20 21 21 21 20 20 21 22 21 21 21 20 20 21 21 21 21 21 20 19 19 20 21 23 22 20 21 24 26 27 29 30 33 36 38 38 38 37 35 33 34 34 34 34 33 33 32 33 34 34 34 36 39 41 42 41 39 37 35 33 35 39
9 11 17 17 12 11 15 17 17 18 20 22 23 20 16 17 23 26 22 18 19 20 20 21 22 22 21 20 20 21 22 22 22 21 21 21 21 21 21 22 22 21 19 19 19 20 21 20 18 19 21 24 26 27 29 32 35 37 38 36 36 35 34 34 34 34 34 34 33 33 34 34 33 32 33 36 39 40 39 37 36 34 33 34 37
5 9 15 17 14 12 13 13 15 18 20 22 24 21 18 21 26 25 21 19 20 20 21 23 23 23 22 21 20 21 23 23 23 23 21 20 20 21 21 21 22 21 20 18 18 19 21 19 17 18 20 22 24 25 27 30 34 37 38 37 37 38 37 35 33 32 33 33 34 35 34 34 33 32 31 33 35 37 38 36 35 34 34 35 38
3 7 13 15 12 10 10 10 12 17 20 22 25 25 24 25 26 23 21 20 20 21 23 23 23 22 22 21 20 21 22 23 24 24 23 22 21 20 20 21 21 21 20 19 18 19 20 19 18 18 19 20 22 24 26 28 32 36 38 39 38 37 37 36 33 31 31 32 33 34 34 34 34 34 33 33 33 35 37 35 34 34 35 36 38
6 8 12 11 8 7 7 8 10 16 20 22 25 28 29 27 23 20 20 20 20 22 23 22 22 22 22 21 21 20 21 22 23 24 24 23 23 22 21 21 21 21 20 19 19 19 19 18 17 17 17 18 20 23 24 26 29 33 36 38 37 36 36 36 34 31 30 31 32 32 32 33 33 33 33 33 32 33 34 34 33 34 36 38 39
8 7 9 9 7 7 8 8 11 16 20 23 25 27 29 27 23 20 19 20 21 23 23 23 23 23 22 22 22 21 20 21 22 23 23 23 23 23 23 23 23 23 21 20 19 20 20 21 20 18 17 17 18 21 24 25 28 30 31 33 34 34 34 35 34 31 29 30 29 29 29 30 30 31 31 30 30 32 34 36 36 36 36 38 38
8 9 12 11 10 9 10 11 14 17 19 21 24 25 26 25 24 22 21 21 23 23 23 23 23 23 23 23 22 22 21 21 20 22 23 24 25 25 25 24 25 26 26 24 22 21 23 24 24 23 21 18 18 20 23 24 25 26 28 29 31 32 32 32 31 30 29 29 28 28 29 29 29 30 31 31 32 33 35 36 37 36 36 37 38
8 10 12 13 14 13 12 14 16 16 15 18 21 22 22 23 24 24 24 24 24 22 22 22 22 23 23 23 22 22 22 21 21 20 21 22 24 26 27 27 26 27 28 28 26 25 25 26 27 26 25 24 23 23 25 26 27 28 29 30 30 31 31 29 28 29 30 29 28 28 28 29 30 31 31 32 33 34 34 34 36 37 37 37 38
9 9 8 11 14 13 12 13 16 15 15 17 19 19 19 20 22 24 26 26 25 22 21 21 22 23 24 24 23 22 22 21 21 21 20 19 20 23 27 29 29 27 28 29 30 29 29 29 30 29 27 27 27 26 26 28 30 31 31 31 30 31 31 31 31 31 30 29 28 27 27 28 31 31 32 33 34 34 34 34 34 36 36 36 38
Wind_Direction
275 279 276 271 266 265 266 265 261 254 250 244 245 256 264 271 271 269 279 253 242 230 196 166 156 167 324 308 304 291 208 177 180 183 182 184 184 183 183 184 183 183 182 182 181 179 177 176 174 173 173 172 173 173 171 169 168 164 160 159 156 150 148 150 150 144 130 116 108 107 114 124 132 140 144 147 149 151 154 156 158 161 163 164 163
284 282 278 274 268 267 266 261 256 246 242 243 242 253 263 268 272 264 265 257 230 230 217 179 159 139 332 313 307 303 261 184 180 181 181 183 185 185 184 184 184 183 183 183 182 180 178 176 175 174 174 174 174 173 172 169 167 165 160 157 158 156 154 154 155 151 140 134 128 109 95 108 121 135 141 146 149 151 156 158 160 163 166 167 167
288 280 278 278 274 275 271 259 251 242 237 242 243 251 261 266 271 269 261 263 235 224 214 169 155 139 312 324 323 308 299 214 183 181 181 182 186 186 185 185 185 184 183 183 182 181 179 177 176 176 176 175 174 172 172 171 168 168 165 160 157 156 158 160 161 160 150 140 135 128 121 114 108 135 144 147 154 157 163 164 163 167 169 171 171
286 286 278 282 286 282 267 257 248 240 235 239 245 249 259 269 273 280 273 258 239 215 207 184 168 135 117 351 354 315 311 272 177 176 182 183 186 187 186 186 186 186 185 183 182 181 180 179 178 178 178 177 175 173 172 172 172 171 169 165 161 157 160 165 168 167 158 151 134 102 131 145 158 162 136 135 168 173 179 178 174 175 174 176 177
274 283 281 281 287 280 263 257 246 237 238 240 246 250 259 276 278 284 278 242 235 210 200 196 173 143 134 144 54 33 325 328 144 160 175 181 184 186 187 187 187 187 185 184 183 182 181 181 180 180 179 178 178 176 175 175 175 174 171 170 169 167 166 168 174 177 171 167 159 140 145 178 185 147 139 140 183 183 190 192 192 190 186 185 186
259 267 277 279 277 276 265 255 242 236 242 244 248 254 260 277 279 280 276 239 228 205 190 186 176 162 152 156 113 75 3 337 18 118 166 176 181 184 185 187 188 187 185 183 182 181 182 182 181 180 178 178 179 178 177 176 176 176 176 175 175 174 169 167 174 182 181 177 172 170 178 182 155 146 141 128 170 185 196 196 201 201 198 195 192
270 267 271 273 267 270 257 247 240 234 244 247 248 257 260 274 278 274 276 249 220 205 194 181 180 178 159 150 141 114 89 324 332 26 152 171 179 182 183 187 188 186 183 182 181 181 182 181 180 180 180 179 179 179 178 179 180 180 181 179 178 177 172 169 175 180 184 187 186 182 181 175 167 164 162 146 151 199 202 196 203 204 203 203 199
273 277 272 270 259 251 243 245 247 240 244 246 246 257 260 266 275 269 270 261 222 201 200 191 188 193 188 177 156 144 143 158 182 266 165 167 176 180 183 187 187 185 184 184 182 181 181 180 180 180 180 180 179 180 180 182 182 182 183 183 181 181 178 177 178 180 184 190 192 189 182 173 175 176 175 168 153 164 184 193 199 199 206 209 205
258 265 268 272 260 248 244 245 252 245 240 242 245 255 256 250 262 264 260 258 232 202 201 202 199 204 208 204 177 162 159 154 157 176 184 180 184 181 180 181 182 183 183 184 182 181 181 180 181 181 180 181 182 183 185 185 184 184 184 185 185 186 186 184 182 182 186 188 187 188 176 163 171 179 180 172 148 138 163 189 184 184 200 208 207
258 255 257 263 266 267 262 250 252 245 233 235 239 246 248 236 237 253 254 247 237 210 201 207 209 210 212 206 190 181 173 163 162 167 175 191 203 196 184 179 178 178 178 179 179 178 180 181 182 182 182 184 185 186 188 187 187 188 187 188 190 190 189 189 188 187 189 189 188 185 173 163 166 175 181 175 146 135 156 179 179 178 183 192 199
261 262 261 268 275 276 271 254 250 243 228 223 225 234 240 231 221 236 249 239 228 217 205 207 214 214 213 212 204 193 184 178 173 169 174 186 193 194 194 193 192 190 187 184 183 183 184 185 187 186 186 188 188 187 189 190 190 191 190 191 193 194 193 194 193 192 190 190 192 190 185 181 179 179 183 180 167 151 145 160 175 178 173 175 187
261 268 270 280 282 270 255 248 244 231 217 209 208 220 231 231 220 217 233 236 223 215 210 208 212 217 218 217 213 204 195 192 188 180 177 182 187 189 192 194 193 192 192 193 195 197 196 194 193 193 193 195 194 193 195 194 193 192 192 193 195 197 197 196 196 195 193 191 194 195 194 193 190 190 189 188 186 176 156 141 158 164 163 170 179
249 256 263 272 270 261 251 249 246 231 216 204 199 206 219 230 226 215 221 231 227 217 212 210 210 214 218 221 219 212 205 202 199 193 186 186 187 186 187 190 189 188 189 193 196 196 195 194 193 194 195 197 198 198 199 198 196 194 194 195 197 199 200 199 199 198 196 195 196 196 197 196 195 197 195 190 187 173 150 136 148 156 149 155 173
239 242 252 258 254 254 254 252 250 241 226 211 201 200 208 223 230 225 219 221 227 223 216 213 212 211 215 220 223 220 212 207 206 205 200 195 192 190 190 191 192 192 192 194 195 193 192 192 193 194 196 197 197 198 199 200 199 198 197 198 199 200 202 202 202 202 200 199 198 197 199 200 200 201 198 191 186 175 154 143 141 136 129 141 164
239 241 245 252 251 252 259 258 254 247 236 221 210 204 204 213 226 232 225 215 218 223 221 218 214 213 213 216 221 224 221 215 209 209 208 204 200 197 197 197 198 198 197 196 196 194 194 194 194 196 197 197 197 197 196 197 198 198 198 199 200 201 202 203 204 204 203 202 201 201 201 204 204 204 203 198 196 192 177 163 155 140 116 140 168
237 242 245 250 253 255 260 261 258 254 245 231 222 213 208 209 217 229 233 223 216 219 222 223 220 216 215 216 218 221 223 221 216 212 211 210 207 204 203 204 204 204 202 199 198 196 196 197 198 199 200 199 198 198 197 195 195 196 196 198 199 200 201 203 205 206 205 204 204 204 204 205 206 207 206 204 202 200 194 184 174 164 152 145 184
229 232 240 248 255 261 258 258 259 256 251 243 234 227 220 215 214 221 231 231 224 220 220 223 224 221 219 217 217 219 220 221 220 219 217 215 215 214 212 211 210 210 209 205 202 200 199 200 201 202 202 203 201 200 198 197 196 196 196 196 198 199 201 203 205 206 207 206 205 205 205 205 206 207 206 204 203 201 197 194 191 184 173 156 153
236 239 245 252 255 261 258 255 255 253 251 250 247 241 231 225 221 219 223 228 229 226 222 220 220 222 223 220 218 219 220 222 223 223 221 218 218 219 220 219 217 216 215 212 208 205 203 202 203 204 204 205 204 202 200 199 198 197 197 198 199 199 200 202 204 205 206 206 205 205 205 206 206 205 204 204 202 201 200 196 196 195 188 178 166
246 243 243 249 246 248 250 251 252 251 251 252 252 249 238 231 228 224 226 229 230 231 230 227 223 223 225 225 223 221 221 224 225 225 224 221 219 220 222 224 224 221 220 217 214 212 209 207 206 206 205 206 207 205 203 201 200 199 199 199 199 198 198 200 202 203 204 204 203 203 203 205 206 204 203 202 200 200 200 196 193 192 193 192 179
231 233 234 238 238 241 241 243 248 249 250 251 251 250 245 239 231 227 228 229 228 230 231 231 231 229 227 226 226 227 226 226 226 228 228 226 224 223 223 225 225 225 225 223 219 217 215 212 210 209 207 207 208 207 205 204 203 202 201 200 199 198 197 198 198 200 202 202 200 200 202 203 203 202 200 199 199 198 197 195 192 189 188 191 185
227 226 230 233 235 242 241 242 246 249 251 253 252 251 251 247 240 232 229 226 225 227 227 229 232 232 230 227 225 226 228 227 225 225 228 230 230 227 226 226 225 226 226 225 223 222 219 216 214 212 211 209 208 209 207 206 205 205 204 202 200 198 197 197 196 196 199 200 199 197 199 201 201 199 197 196 195 194 193 191 188 186 188 191 189
225 221 225 233 234 240 243 245 248 249 251 252 252 252 251 251 250 245 236 230 227 226 226 229 230 230 231 231 229 226 225 225 223 222 224 227 230 230 228 226 226 226 226 225 225 223 222 220 217 216 215 213 211 210 209 208 206 206 206 203 200 198 197 196 195 195 196 197 197 196 197 199 199 198 196 195 193 191 190 188 186 189 194 195 193
228 227 228 232 234 241 249 252 250 248 248 250 251 251 251 252 254 251 247 244 239 233 229 227 226 227 229 231 232 230 226 223 222 221 222 224 227 229 230 228 226 227 227 227 226 224 222 221 219 219 218 216 214 212 210 209 207 207 207 204 200 198 198 197 195 195 194 195 196 196 197 197 197 197 196 195 194 191 188 187 188 194 197 194 194
242 242 240 241 250 260 261 257 249 246 246 248 250 251 253 255 255 253 253 255 254 246 236 228 223 223 224 224 226 227 227 226 225 225 226 226 226 226 228 230 230 229 229 229 228 225 223 221 220 219 219 218 217 214 212 210 209 208 207 205 201 198 199 200 198 197 196 196 196 195 196 196 195 195 194 194 192 188 188 190 192 195 198 195 192
248 247 248 248 251 254 250 248 246 247 248 250 254 256 257 257 257 255 256 258 259 254 245 236 228 224 220 219 219 220 221 222 225 228 231 232 231 228 227 230 231 231 231 231 229 227 225 222 221 221 219 218 219 218 215 213 211 209 209 208 204 200 201 202 201 200 198 198 197 196 195 194 193 192 191 191 191 188 190 193 194 194 197 197 192
240 235 235 239 246 250 248 248 245 246 250 254 258 261 261 261 259 258 259 260 260 257 251 243 236 230 224 221 219 217 218 220 221 225 228 230 231 230 229 230 231 232 233 234 232 230 228 226 225 224 221 219 218 217 216 216 214 211 210 209 205 202 203 203 202 201 200 199 199 198 196 194 193 192 190 190 190 191 192 191 191 194 196 194 192
229 227 235 244 255 254 248 246 244 245 248 253 259 263 264 264 263 261 259 258 257 253 247 243 240 237 234 230 226 224 223 223 224 224 226 227 227 227 227 229 231 231 233 235 236 234 233 231 229 227 225 222 218 216 217 217 216 214 212 210 206 202 203 204 203 202 201 200 200 199 197 196 195 194 193 191 190 191 191 191 191 191 192 192 190
237 241 245 245 251 254 249 247 245 246 250 254 258 261 262 262 263 262 258 253 250 246 243 246 248 247 247 245 243 240 237 234 231 229 228 226 226 225 225 227 229 229 231 234 237 238 237 235 233 230 228 225 220 217 216 216 215 214 213 212 208 203 201 202 202 202 201 200 201 200 199 199 198 197 196 195 193 192 190 190 190 189 189 190 188
239 240 240 238 245 250 247 245 242 243 250 254 256 259 259 257 257 256 253 248 247 247 250 255 256 255 256 257 256 254 251 248 242 236 233 230 228 226 225 226 228 230 231 233 235 238 237 236 235 233 230 227 223 220 218 217 216 215 214 213 210 204 201 201 201 202 201 200 200 200 201 201 200 198 199 199 197 196 193 190 188 188 189 189 186
231 240 247 247 248 246 242 247 246 241 244 249 252 252 250 248 248 248 246 245 245 248 254 257 259 261 263 264 263 260 257 253 248 242 238 234 231 228 226 226 228 230 232 232 232 234 234 234 234 233 231 227 225 225 223 222 220 218 215 212 210 207 203 200 200 200 199 199 200 201 202 201 199 197 198 199 198 197 198 196 191 190 192 190 184
236 244 255 260 257 248 242 246 244 239 239 241 244 244 241 241 242 242 241 240 242 246 251 255 259 263 267 268 267 264 258 253 249 244 240 236 232 228 225 225 226 228 230 230 229 230 231 231 231 230 229 228 228 227 224 223 222 219 216 211 207 207 205 201 200 199 198 197 198 200 201 200 198 196 197 198 198 198 199 199 197 198 199 197 191
243 249 255 259 255 245 236 236 238 237 236 237 237 233 232 234 236 237 236 234 237 242 247 253 258 263 266 267 268 265 259 253 248 243 239 235 230 226 224 223 223 224 226 227 227 227 227 228 229 229 227 227 229 228 224 222 219 217 216 213 207 206 207 205 202 200 198 196 195 198 198 197 197 197 196 197 198 199 200 200 201 203 203 204 205
243 246 246 248 247 238 230 228 230 232 234 236 233 226 227 233 233 232 229 227 232 239 244 250 256 261 264 265 265 262 257 251 247 243 238 233 227 224 223 223 223 224 225 224 225 226 225 225 226 227 225 224 225 226 223 222 220 217 216 215 210 206 207 207 205 201 198 195 194 194 193 193 195 195 195 195 195 196 197 199 201 202 202 204 207
239 239 238 240 239 233 229 227 228 232 236 236 231 226 229 231 226 223 223 224 228 232 236 245 254 259 261 261 260 256 251 248 244 239 234 228 224 223 223 224 224 223 221 221 222 222 222 223 224 226 226 223 222 221 220 220 218 216 215 215 213 209 207 207 206 203 200 196 194 193 190 189 190 191 192 193 193 192 193 194 196 198 200 202 203
232 228 229 232 230 227 227 228 230 231 230 228 224 221 220 218 214 215 217 221 226 227 233 245 252 254 255 253 252 248 245 243 239 233 229 225 224 224 224 225 224 222 221 221 220 220 220 221 223 224 224 224 222 219 217 216 215 214 213 212 213 211 208 206 206 205 203 199 195 193 191 188 187 188 190 192 192 191 191 191 193 196 197 199 201
220 214 221 222 220 217 215 219 224 221 217 218 219 213 209 207 208 211 214 217 222 225 233 243 248 250 249 246 244 242 240 238 234 229 226 225 225 225 225 224 223 221 220 219 217 219 222 222 222 222 220 222 223 219 214 213 213 211 208 206 209 211 209 207 206 204 205 203 198 194 192 190 188 187 188 190 191 190 188 187 189 192 194 196 199
212 213 219 217 216 215 213 215 216 209 208 214 214 206 201 202 202 206 211 214 218 224 231 237 241 245 245 243 241 239 236 234 230 226 225 224 225 226 226 224 221 219 219 218 216 219 224 223 221 219 217 217 219 216 212 211 210 207 204 202 205 209 209 208 206 204 203 202 200 197 194 191 191 189 188 188 189 188 186 185 185 187 189 192 196
211 213 217 217 215 212 214 215 207 202 208 211 206 199 195 197 200 203 207 211 216 223 228 231 235 239 241 241 240 237 236 234 230 227 226 226 226 227 227 225 224 222 220 219 219 222 225 223 219 217 215 214 214 211 208 208 206 204 203 200 201 204 206 206 205 203 202 202 200 198 197 194 192 191 189 188 188 187 184 183 184 184 184 188 192
215 207 207 211 210 209 211 206 196 199 206 204 199 195 192 195 201 202 204 211 218 224 227 229 232 234 236 239 239 238 237 235 233 232 232 231 230 229 229 226 223 220 219 221 225 227 226 223 220 217 214 211 211 208 204 203 202 202 202 199 197 199 202 203 203 201 200 201 199 198 198 198 196 194 192 190 189 188 185 185 185 182 182 187 190
216 208 208 208 201 192 189 188 193 202 203 197 194 192 192 200 203 199 207 218 224 228 229 230 232 232 234 238 240 239 239 236 234 235 235 235 232 227 224 221 218 220 225 230 232 228 224 222 220 218 213 210 210 206 201 202 202 201 200 197 195 196 199 200 200 198 197 198 197 196 197 199 199 196 194 192 191 190 188 187 186 185 186 188 187
210 202 197 190 186 184 183 190 200 203 198 193 191 190 196 203 199 201 218 228 230 231 230 228 228 228 230 235 238 238 239 236 233 232 231 229 226 221 219 218 220 224 227 228 226 223 222 222 221 218 214 210 210 206 201 202 204 202 200 197 196 197 198 197 196 196 197 196 195 195 195 197 199 198 196 194 193 193 192 191 190 191 192 190 185
194 187 177 171 179 186 188 198 204 201 197 194 190 192 200 199 197 214 228 233 231 228 225 223 224 224 225 230 234 237 239 237 233 229 226 223 220 220 221 222 221 220 219 218 218 218 220 223 223 220 216 212 211 208 202 203 205 204 200 199 199 199 199 198 195 195 198 198 197 196 194 194 197 197 196 195 194 193 194 194 193 193 193 191 187
157 168 172 168 172 185 196 205 205 200 199 195 192 196 199 196 209 226 233 232 228 224 221 219 219 220 221 224 229 234 236 236 233 229 227 225 222 220 219 218 215 211 209 211 213 214 219 224 223 221 218 214 212 209 205 205 206 204 201 200 199 197 197 199 199 198 199 199 198 196 193 192 194 195 195 194 194 193 194 194 193 193 194 192 188
160 167 170 168 172 192 206 211 207 202 202 199 198 199 197 205 222 231 230 227 225 220 216 215 216 218 219 221 225 230 233 232 230 227 224 222 220 217 214 212 210 205 201 204 207 211 218 224 223 221 219 216 212 210 208 207 207 204 201 198 196 197 198 200 201 202 200 198 195 195 194 192 192 192 194 195 194 193 193 193 193 195 195 192 188
164 166 171 176 184 195 205 211 211 209 208 205 205 202 201 216 229 231 226 223 220 214 211 212 214 215 217 218 221 226 229 228 225 222 220 218 215 212 209 207 206 202 198 198 201 207 216 222 223 222 221 217 214 211 208 207 207 205 202 198 195 197 200 200 201 201 199 196 196 195 195 193 192 191 192 194 194 194 195 195 195 196 195 192 190
187 166 173 186 193 198 207 216 219 215 211 211 211 208 212 225 231 228 224 221 216 210 210 211 212 214 215 216 217 221 225 226 222 219 219 219 217 213 209 205 203 202 201 198 196 202 213 222 224 225 225 220 215 213 210 206 204 203 202 199 196 197 199 200 201 201 198 195 195 195 194 194 194 192 190 191 193 195 197 196 196 196 197 196 193
211 178 173 181 188 202 217 225 227 221 214 214 216 217 222 229 230 225 222 218 213 211 210 209 211 212 212 213 213 216 220 223 221 218 216 218 219 217 214 209 205 203 203 200 195 196 206 219 224 226 226 222 216 213 211 207 203 201 200 199 196 195 196 197 197 198 195 192 191 191 191 193 193 191 190 190 192 194 196 196 196 198 200 200 199
217 190 177 179 189 208 217 224 230 226 219 216 219 224 228 229 226 222 219 214 212 212 211 211 211 211 211 212 212 213 216 219 220 218 215 215 216 216 218 219 216 212 208 203 197 194 200 212 220 221 219 220 220 217 212 209 207 203 200 198 196 195 194 193 192 191 188 187 186 185 187 189 188 185 186 188 190 193 197 198 199 200 202 202 201
209 196 192 197 208 214 212 219 230 228 220 218 223 229 231 228 224 222 217 213 213 213 213 213 212 209 210 211 211 213 214 216 218 220 219 219 219 218 220 223 224 222 218 214 208 201 202 210 218 219 214 212 216 220 218 216 214 210 206 202 200 198 195 192 190 186 181 178 178 179 180 182 182 182 184 188 190 193 197 200 200 200 201 202 200
220 208 201 208 221 223 217 224 233 230 222 223 229 232 232 229 225 222 217 215 213 211 211 213 211 209 209 208 208 211 213 214 217 219 220 222 224 223 224 226 228 228 226 223 221 216 212 213 218 222 221 219 221 225 224 222 220 216 212 208 205 202 197 193 189 184 179 175 176 178 181 182 182 183 187 191 192 192 194 197 200 200 201 201 199
225 214 205 216 229 230 224 231 239 236 228 230 234 234 232 230 227 222 219 217 213 209 209 212 211 210 209 207 206 208 210 212 216 217 217 220 223 226 228 229 230 232 232 231 230 228 224 220 220 222 223 224 226 227 226 222 219 216 212 209 206 203 199 194 189 184 180 178 180 182 185 186 185 186 190 194 195 193 193 196 198 199 201 201 199